Time,TemperatureF,DewpointF,PressureIn,WindDirection,WindDirectionDegrees,WindSpeedMPH,WindSpeedGustMPH,Humidity,HourlyPrecipIn,Conditions,Clouds,dailyrainin,SoftwareType,DateUTC
2013-05-06 00:11:00,59.0,58.1,29.65,SE,135,4.7,-999.0,97,-99.99,,,0.00,Acu-Link.com,2013-05-06 04:11:00,
2013-05-06 00:26:00,59.0,58.1,29.65,WSW,247,4.0,-999.0,97,-99.99,,,0.00,Acu-Link.com,2013-05-06 04:26:00,
2013-05-06 00:41:00,59.0,58.1,29.65,North,0,4.7,-999.0,97,-99.99,,,0.00,Acu-Link.com,2013-05-06 04:41:00,
2013-05-06 00:56:00,59.0,57.9,29.65,NE,45,2.7,-999.0,96,-99.99,,,0.00,Acu-Link.com,2013-05-06 04:56:00,
2013-05-06 01:11:00,59.0,57.9,29.65,ESE,112,2.0,-999.0,96,-99.99,,,0.00,Acu-Link.com,2013-05-06 05:11:00,
2013-05-06 01:26:00,59.0,58.1,29.64,West,270,3.6,-999.0,97,-99.99,,,0.00,Acu-Link.com,2013-05-06 05:26:00,
2013-05-06 01:42:00,59.0,58.1,29.65,ESE,112,7.2,-999.0,97,-99.99,,,0.01,Acu-Link.com,2013-05-06 05:42:00,
2013-05-06 01:57:00,59.0,58.1,29.64,SW,225,4.0,-999.0,97,-99.99,,,0.04,Acu-Link.com,2013-05-06 05:57:00,
2013-05-06 02:12:00,57.2,56.4,29.63,West,270,6.7,-999.0,97,-99.99,,,0.08,Acu-Link.com,2013-05-06 06:12:00,
2013-05-06 02:27:00,57.2,56.4,29.63,SW,225,3.1,-999.0,97,-99.99,,,0.08,Acu-Link.com,2013-05-06 06:27:00,
2013-05-06 02:42:00,57.2,56.6,29.63,South,180,2.0,-999.0,98,-99.99,,,0.13,Acu-Link.com,2013-05-06 06:42:00,
2013-05-06 02:57:00,57.2,56.6,29.63,ENE,67,3.6,-999.0,98,-99.99,,,0.14,Acu-Link.com,2013-05-06 06:57:00,
2013-05-06 03:13:00,57.2,56.6,29.61,NNE,22,2.7,-999.0,98,-99.99,,,0.17,Acu-Link.com,2013-05-06 07:13:00,
2013-05-06 03:28:00,57.2,56.6,29.61,ENE,67,4.7,-999.0,98,-99.99,,,0.18,Acu-Link.com,2013-05-06 07:28:00,
2013-05-06 03:43:00,57.2,56.6,29.61,SE,135,3.1,-999.0,98,-99.99,,,0.19,Acu-Link.com,2013-05-06 07:43:00,
2013-05-06 03:58:00,57.2,56.6,29.61,West,270,7.8,-999.0,98,-99.99,,,0.20,Acu-Link.com,2013-05-06 07:58:00,
2013-05-06 04:13:00,57.2,56.6,29.62,SW,225,4.0,-999.0,98,-99.99,,,0.25,Acu-Link.com,2013-05-06 08:13:00,
2013-05-06 04:29:00,57.2,56.6,29.62,West,270,3.1,-999.0,98,-99.99,,,0.27,Acu-Link.com,2013-05-06 08:29:00,
2013-05-06 04:44:00,57.2,56.9,29.62,NNE,22,2.7,-999.0,99,-99.99,,,0.32,Acu-Link.com,2013-05-06 08:44:00,
2013-05-06 04:59:00,57.2,56.9,29.62,SW,225,3.1,-999.0,99,-99.99,,,0.39,Acu-Link.com,2013-05-06 08:59:00,
2013-05-06 05:14:00,57.2,56.9,29.62,ESE,112,1.6,-999.0,99,-99.99,,,0.50,Acu-Link.com,2013-05-06 09:14:00,
2013-05-06 05:29:00,55.4,55.1,29.63,NW,315,1.6,-999.0,99,-99.99,,,0.65,Acu-Link.com,2013-05-06 09:29:00,
2013-05-06 05:45:00,55.4,55.1,29.61,SSW,202,2.0,-999.0,99,-99.99,,,0.77,Acu-Link.com,2013-05-06 09:45:00,
2013-05-06 06:00:00,55.4,55.1,29.61,NW,315,2.7,-999.0,99,-99.99,,,1.22,Acu-Link.com,2013-05-06 10:00:00,
2013-05-06 06:15:00,55.4,55.1,29.62,NNW,337,0.0,-999.0,99,-99.99,,,1.40,Acu-Link.com,2013-05-06 10:15:00,
2013-05-06 06:30:00,55.4,55.1,29.62,East,90,1.1,-999.0,99,-99.99,,,1.54,Acu-Link.com,2013-05-06 10:30:00,
2013-05-06 06:45:00,55.4,55.1,29.63,WSW,247,0.0,-999.0,99,-99.99,,,1.75,Acu-Link.com,2013-05-06 10:45:00,
2013-05-06 07:01:00,55.4,55.1,29.63,North,0,2.0,-999.0,99,-99.99,,,1.95,Acu-Link.com,2013-05-06 11:01:00,
2013-05-06 07:16:00,55.4,55.1,29.63,NE,45,0.0,-999.0,99,-99.99,,,1.98,Acu-Link.com,2013-05-06 11:16:00,
2013-05-06 07:31:00,55.4,55.1,29.64,SSW,202,0.0,-999.0,99,-99.99,,,1.98,Acu-Link.com,2013-05-06 11:31:00,
2013-05-06 07:46:00,55.4,55.1,29.65,NE,45,0.0,-999.0,99,-99.99,,,1.98,Acu-Link.com,2013-05-06 11:46:00,
2013-05-06 08:02:00,59.0,58.7,29.66,West,270,1.1,-999.0,99,-99.99,,,1.98,Acu-Link.com,2013-05-06 12:02:00,
2013-05-06 08:17:00,59.0,58.7,29.66,ENE,67,0.0,-999.0,99,-99.99,,,1.98,Acu-Link.com,2013-05-06 12:17:00,
2013-05-06 08:32:00,59.0,58.7,29.66,SSE,157,1.6,-999.0,99,-99.99,,,1.98,Acu-Link.com,2013-05-06 12:32:00,
2013-05-06 08:48:00,60.8,59.4,29.66,East,90,1.6,-999.0,95,-99.99,,,1.98,Acu-Link.com,2013-05-06 12:48:00,
2013-05-06 09:03:00,62.6,60.5,29.66,ESE,112,2.7,-999.0,93,-99.99,,,1.98,Acu-Link.com,2013-05-06 13:03:00,
2013-05-06 09:18:00,64.4,61.1,29.65,SW,225,2.7,-999.0,89,-99.99,,,1.98,Acu-Link.com,2013-05-06 13:18:00,
2013-05-06 09:33:00,64.4,59.5,29.65,SSE,157,2.0,-999.0,84,-99.99,,,1.98,Acu-Link.com,2013-05-06 13:33:00,
2013-05-06 09:48:00,66.2,61.6,29.66,SSW,202,3.1,-999.0,85,-99.99,,,1.98,Acu-Link.com,2013-05-06 13:48:00,
2013-05-06 10:03:00,68.0,61.6,29.66,SW,225,1.1,-999.0,80,-99.99,,,1.98,Acu-Link.com,2013-05-06 14:03:00,
2013-05-06 10:19:00,66.2,61.2,29.66,West,270,3.1,-999.0,84,-99.99,,,1.98,Acu-Link.com,2013-05-06 14:19:00,
2013-05-06 10:34:00,64.4,59.8,29.66,SSW,202,2.7,-999.0,85,-99.99,,,1.98,Acu-Link.com,2013-05-06 14:34:00,
2013-05-06 10:49:00,64.4,59.5,29.67,SSW,202,1.1,-999.0,84,-99.99,,,1.98,Acu-Link.com,2013-05-06 14:49:00,
2013-05-06 11:04:00,68.0,61.6,29.67,West,270,2.0,-999.0,80,-99.99,,,1.98,Acu-Link.com,2013-05-06 15:04:00,
2013-05-06 11:19:00,68.0,61.2,29.66,South,180,4.0,-999.0,79,-99.99,,,1.98,Acu-Link.com,2013-05-06 15:19:00,
2013-05-06 11:35:00,69.8,61.5,29.66,SSE,157,2.7,-999.0,75,-99.99,,,1.98,Acu-Link.com,2013-05-06 15:35:00,
2013-05-06 11:50:00,71.6,61.7,29.66,SE,135,1.1,-999.0,71,-99.99,,,1.98,Acu-Link.com,2013-05-06 15:50:00,
2013-05-06 12:05:00,71.6,60.0,29.66,SW,225,2.7,-999.0,67,-99.99,,,1.98,Acu-Link.com,2013-05-06 16:05:00,
2013-05-06 12:21:00,73.4,61.8,29.65,West,270,2.7,-999.0,67,-99.99,,,1.98,Acu-Link.com,2013-05-06 16:21:00,
2013-05-06 12:36:00,71.6,61.3,29.64,NNE,22,3.6,-999.0,70,-99.99,,,1.98,Acu-Link.com,2013-05-06 16:36:00,
2013-05-06 12:51:00,73.4,59.6,29.63,West,270,2.0,-999.0,62,-99.99,,,1.98,Acu-Link.com,2013-05-06 16:51:00,
2013-05-06 13:06:00,73.4,59.1,29.63,West,270,2.0,-999.0,61,-99.99,,,1.98,Acu-Link.com,2013-05-06 17:06:00,
2013-05-06 13:21:00,69.8,58.8,29.62,SW,225,1.1,-999.0,68,-99.99,,,1.98,Acu-Link.com,2013-05-06 17:21:00,
2013-05-06 13:37:00,68.0,59.0,29.62,ESE,112,1.1,-999.0,73,-99.99,,,1.98,Acu-Link.com,2013-05-06 17:37:00,
2013-05-06 13:52:00,73.4,59.6,29.62,NE,45,1.6,-999.0,62,-99.99,,,1.98,Acu-Link.com,2013-05-06 17:52:00,
2013-05-06 14:07:00,71.6,57.0,29.61,SSW,202,3.6,-999.0,60,-99.99,,,1.98,Acu-Link.com,2013-05-06 18:07:00,
2013-05-06 14:22:00,71.6,58.3,29.61,SSE,157,3.6,-999.0,63,-99.99,,,1.98,Acu-Link.com,2013-05-06 18:22:00,
2013-05-06 14:38:00,73.4,57.7,29.61,SE,135,3.6,-999.0,58,-99.99,,,1.98,Acu-Link.com,2013-05-06 18:38:00,
2013-05-06 14:53:00,78.8,58.6,29.60,SSE,157,6.3,-999.0,50,-99.99,,,1.98,Acu-Link.com,2013-05-06 18:53:00,
2013-05-06 15:08:00,71.6,55.5,29.60,South,180,2.0,-999.0,57,-99.99,,,1.98,Acu-Link.com,2013-05-06 19:08:00,
2013-05-06 15:23:00,73.4,59.6,29.60,South,180,4.7,-999.0,62,-99.99,,,1.98,Acu-Link.com,2013-05-06 19:23:00,
2013-05-06 15:38:00,71.6,59.2,29.60,South,180,2.0,-999.0,65,-99.99,,,1.98,Acu-Link.com,2013-05-06 19:38:00,
2013-05-06 15:53:00,71.6,57.4,29.60,East,90,2.7,-999.0,61,-99.99,,,1.98,Acu-Link.com,2013-05-06 19:53:00,
2013-05-06 16:09:00,71.6,58.3,29.60,SW,225,2.7,-999.0,63,-99.99,,,1.98,Acu-Link.com,2013-05-06 20:09:00,
2013-05-06 16:24:00,69.8,55.7,29.59,South,180,4.0,-999.0,61,-99.99,,,1.98,Acu-Link.com,2013-05-06 20:24:00,
2013-05-06 16:39:00,71.6,56.5,29.59,SW,225,2.7,-999.0,59,-99.99,,,1.98,Acu-Link.com,2013-05-06 20:39:00,
2013-05-06 16:54:00,75.2,57.9,29.59,WNW,292,2.0,-999.0,55,-99.99,,,1.98,Acu-Link.com,2013-05-06 20:54:00,
2013-05-06 17:09:00,77.0,58.5,29.59,SSE,157,3.1,-999.0,53,-99.99,,,1.98,Acu-Link.com,2013-05-06 21:09:00,
2013-05-06 17:24:00,73.4,55.2,29.59,South,180,1.6,-999.0,53,-99.99,,,1.98,Acu-Link.com,2013-05-06 21:24:00,
2013-05-06 17:40:00,73.4,54.2,29.59,South,180,5.1,-999.0,51,-99.99,,,1.98,Acu-Link.com,2013-05-06 21:40:00,
2013-05-06 17:55:00,69.8,51.9,29.59,WSW,247,1.6,-999.0,53,-99.99,,,1.98,Acu-Link.com,2013-05-06 21:55:00,
2013-05-06 18:10:00,69.8,50.3,29.60,ESE,112,2.0,-999.0,50,-99.99,,,1.98,Acu-Link.com,2013-05-06 22:10:00,
2013-05-06 18:25:00,68.0,50.2,29.60,SE,135,2.7,-999.0,53,-99.99,,,1.98,Acu-Link.com,2013-05-06 22:25:00,
2013-05-06 18:40:00,66.2,51.0,29.60,NNE,22,2.7,-999.0,58,-99.99,,,1.98,Acu-Link.com,2013-05-06 22:40:00,
2013-05-06 18:55:00,64.4,50.2,29.60,NW,315,1.6,-999.0,60,-99.99,,,1.98,Acu-Link.com,2013-05-06 22:55:00,
2013-05-06 19:11:00,64.4,49.8,29.61,ESE,112,2.0,-999.0,59,-99.99,,,1.98,Acu-Link.com,2013-05-06 23:11:00,
2013-05-06 19:26:00,62.6,48.5,29.62,NW,315,0.0,-999.0,60,-99.99,,,1.98,Acu-Link.com,2013-05-06 23:26:00,
2013-05-06 19:41:00,62.6,49.8,29.62,NW,315,1.6,-999.0,63,-99.99,,,1.98,Acu-Link.com,2013-05-06 23:41:00,
2013-05-06 19:57:00,62.6,49.4,29.62,NNW,337,1.6,-999.0,62,-99.99,,,1.98,Acu-Link.com,2013-05-06 23:57:00,
2013-05-06 20:12:00,60.8,49.0,29.62,NNW,337,0.0,-999.0,65,-99.99,,,1.98,Acu-Link.com,2013-05-07 00:12:00,
2013-05-06 20:28:00,59.0,48.1,29.62,NW,315,1.6,-999.0,67,-99.99,,,1.98,Acu-Link.com,2013-05-07 00:28:00,
2013-05-06 20:43:00,59.0,48.8,29.63,NNE,22,1.6,-999.0,69,-99.99,,,1.98,Acu-Link.com,2013-05-07 00:43:00,
2013-05-06 20:58:00,57.2,50.1,29.63,NNE,22,0.0,-999.0,77,-99.99,,,1.98,Acu-Link.com,2013-05-07 00:58:00,
2013-05-06 21:13:00,55.4,48.7,29.64,NNE,22,0.0,-999.0,78,-99.99,,,1.98,Acu-Link.com,2013-05-07 01:13:00,
2013-05-06 21:28:00,55.4,49.3,29.64,NNE,22,0.0,-999.0,80,-99.99,,,1.98,Acu-Link.com,2013-05-07 01:28:00,
2013-05-06 21:44:00,55.4,50.3,29.65,NNE,22,0.0,-999.0,83,-99.99,,,1.98,Acu-Link.com,2013-05-07 01:44:00,
2013-05-06 21:59:00,53.6,48.9,29.65,NNE,22,0.0,-999.0,84,-99.99,,,1.98,Acu-Link.com,2013-05-07 01:59:00,
2013-05-06 22:14:00,53.6,49.2,29.66,NW,315,0.0,-999.0,85,-99.99,,,1.98,Acu-Link.com,2013-05-07 02:14:00,
2013-05-06 22:29:00,53.6,48.6,29.67,NNE,22,0.0,-999.0,83,-99.99,,,1.98,Acu-Link.com,2013-05-07 02:29:00,
2013-05-06 22:44:00,53.6,47.6,29.66,North,0,0.0,-999.0,80,-99.99,,,1.98,Acu-Link.com,2013-05-07 02:44:00,
2013-05-06 23:00:00,53.6,48.2,29.67,North,0,1.6,-999.0,82,-99.99,,,1.98,Acu-Link.com,2013-05-07 03:00:00,
2013-05-06 23:15:00,53.6,48.6,29.67,North,0,0.0,-999.0,83,-99.99,,,1.98,Acu-Link.com,2013-05-07 03:15:00,
2013-05-06 23:30:00,51.8,46.8,29.68,North,0,1.1,-999.0,83,-99.99,,,1.98,Acu-Link.com,2013-05-07 03:30:00,
2013-05-06 23:45:00,51.8,47.4,29.67,North,0,0.0,-999.0,85,-99.99,,,1.98,Acu-Link.com,2013-05-07 03:45:00,